User: anonymous   Login
Location: Theydon Bois
(51.6750°N, 0.1050°E)
Time: 02:24:20
(UTC+01:00)
Language:

Cosmos 1470 - Orbit

View from above orbital plane
View from above orbital plane
View from above satellite
View from above satellite

Ground track
Ground track

The orbit data is extracted from the following two-line orbital elements,

1 14147U 83061A   18197.91305656 +.00000023 +00000-0 -49228-6 0  9993
2 14147 082.4811 011.2719 0015394 350.8643 009.2305 15.10966309664134
Epoch (UTC): 16 July 2018 21:54:48
Eccentricity: 0.0015394
inclination: 82.4811°
perigee height: 522 km
apogee height: 544 km
right ascension of ascending node: 11.2719°
argument of perigee: 350.8643°
revolutions per day: 15.10966309
mean anomaly at epoch: 9.2305°
orbit number at epoch: 66413

The dashed part of the orbit path shows where the satellite is in the earth's shadow,  

DLR